Location: Akgöl Batakl???
(38.9482°N, 31.8837°E)
Time: 13:36:45
(UTC+00:00)

Okean O Rocket - Pass Details

Date: 08 May 2026
Orbit: 614 x 633 km, 98.0° (Epoch: 11 June)

Event Time Altitude Azimuth Distance (km) Brightness Sun altitude
Exits shadow 17:43:07 11° 103° (ESE) 1,879 3.4 -9.7°
Maximum altitude 17:45:31 17° 66° (ENE) 1,562 3.3 -10.1°
Drops below altitude 10° 17:48:18 10° 26° (NNE) 1,980 4.2 -10.6°
Sets 17:51:06 0° 6° (N) 2,889 5.4 -11.0°
